Location: Raitis
(47.2167°N, 11.3833°E)
Time: 10:24:55
(UTC+00:00)

Cosmos 1500 - Pass Details

Date: 03 March 2021
Orbit: 499 x 517 km, 82.5° (Epoch: 22 April)

Event Time Altitude Azimuth Distance (km) Brightness Sun altitude
Rises 18:46:50 0° 202° (SSW) 2,579 6.9 -18.4°
Reaches altitude 10° 18:48:59 10° 208° (SSW) 1,700 6.0 -18.8°
Maximum altitude 18:52:35 46° 283° (WNW) 683 4.2 -19.4°
Drops below altitude 10° 18:56:13 10° 358° (N) 1,716 6.0 -20.0°
Sets 18:58:24 0° 4° (N) 2,606 6.9 -20.3°
